Location: Rounton
(54.4000°N, 1.3500°W)
Time: 17:08:28
(UTC+00:00)

Transit 2A Rocket - Pass Details

Date: 05 December 2021
Orbit: 584 x 917 km, 66.7° (Epoch: 23 January)

Event Time Altitude Azimuth Distance (km) Brightness Sun altitude
Rises 05:42:12 0° 145° (SE) 3,367 9.0 -20.0°
Reaches altitude 10° 05:47:42 10° 102° (ESE) 2,531 8.9 -19.2°
Maximum altitude 05:48:04 10° 98° (E) 2,532 8.9 -19.2°
Drops below altitude 10° 05:48:26 10° 94° (E) 2,542 8.9 -19.1°
Sets 05:54:09 0° 52° (NE) 3,548 9.0 -18.3°
